Regional Weather Roundup
Issued by NWS

Home | Current Version | Previous Version | Graphics & Text | Print | Product List | Glossary Off
Versions: 1 2 3 4 5 6 7 8 9 10 11 12 13 14 15 16 17 18 19 20 21 22 23 24 25 26 27 28 29 30 31 32 33 34 35 36 37 38 39 40 41 42 43 44 45 46 47 48 49 50

000
ASUS43 KTOP 251259
RWRKS

WEATHER ROUNDUP FOR KANSAS
NATIONAL WEATHER SERVICE GOODLAND KS
800 AM CDT THU AUG 25 2016

NOTE:  "FAIR" INDICATES FEW OR NO CLOUDS BELOW 12,000 FEET WITH NO
SIGNIFICANT WEATHER AND/OR OBSTRUCTIONS TO VISIBILITY.

KSZ001>006-013>018-027>032-041>047-251400-
NORTHWEST KANSAS

CITY           SKY/WX    TMP DP  RH WIND       PRES   REMARKS
GOODLAND       CLOUDY    54  50  86 NW5       30.21R
HAYS           CLOUDY    59  50  72 N13       30.15R
HILL CITY      MOSUNNY   59  57  93 CALM      30.17R
RUSSELL        CLOUDY    59  57  93 N9        30.12R
$$

KSZ061>065-074>080-084>089-251400-
SOUTHWEST KANSAS

CITY           SKY/WX    TMP DP  RH WIND       PRES   REMARKS
DODGE CITY     MOCLDY    61  59  93 NW5       30.15R
ELKHART          N/A     59  54  84 N6          N/A
GARDEN CITY    CLOUDY    60  57  89 NW3       30.17R
GREAT BEND     MOSUNNY   63  55  77 NE6       30.10R
LIBERAL        CLOUDY    63  57  82 N8        30.17R
$$

KSZ066>073-081>083-090>101-251400-
SOUTHEAST KANSAS

CITY           SKY/WX    TMP DP  RH WIND       PRES   REMARKS
CHANUTE        PTSUNNY   71  67  87 S5        30.06R
COFFEYVILLE    PTSUNNY   73  67  81 S8        30.05S
HUTCHINSON     CLOUDY    66  64  93 N7        30.09R
MEDICINE LODGE   N/A     66  64  93 N7        30.09R
NEWTON         CLOUDY    67  66  97 NW10      30.09R
PARSONS        MOSUNNY   72  67  84 S5        30.06S
WICHITA INTL   CLOUDY    70  67  90 NW13      30.06R
WICHITA JABRA  CLOUDY    71  67  87 NW8       30.05R
WINFIELD       SUNNY     72  69  90 CALM      30.06S
$$

KSZ007>012-019>026-033>040-048>060-102>105-251400-
NORTHEAST KANSAS

CITY           SKY/WX    TMP DP  RH WIND       PRES   REMARKS
CONCORDIA      MOSUNNY   60  56  86 NE7       30.10R
EMPORIA        CLOUDY    69  66  90 CALM      30.04F
LAWRENCE       LGT RAIN  70  32  24 MISG      30.06R
MANHATTAN      LGT RAIN  65  64  97 N10G18    30.06F
OLATHE IND     TSTM      69  69 100 W10       30.07R FOG
OLATHE EXE     TSTM      69  69 100 W10G16    30.08R FOG
SALINA         PTSUNNY   67  64  90 N6        30.08S
TOPEKA BILLARD LGT RAIN  71  70  96 SE5       30.05S
TOPEKA FORBES  CLOUDY    72  70  93 CALM      30.05R
$$




USA.gov is the U.S. government's official web portal to all federal, state and local government web resources and services.